Location: Limoges
(45.8354°N, 1.2645°E)
Time: 09:13:55
(UTC+01:00)

Transit 2A Rocket - All Passes

Search period start: 25 February 2024 00:00
Search period end: 06 March 2024 00:00
Orbit: 591 x 904 km, 66.7° (Epoch: 24 February)

Date Brightness Start Highest point End Pass type
(mag) Time Alt. Az. Time Alt. Az. Time Alt. Az.
25 Feb - 02:12:18 10° SSW 02:16:35 83° ESE 02:21:01 10° NE night (unlit)
25 Feb - 03:56:52 10° WNW 03:59:41 17° NW 04:02:35 10° N visible
25 Feb - 09:10:07 10° N 09:13:56 22° NE 09:17:59 10° E daylight
25 Feb - 10:51:52 10° NW 10:56:52 75° WSW 11:02:20 10° SSE daylight
25 Feb - 12:37:13 10° W 12:38:39 11° WSW 12:40:07 10° WSW daylight
26 Feb - 01:28:51 10° S 01:32:54 43° ESE 01:37:05 10° NE night (unlit)
26 Feb - 03:11:58 10° W 03:15:33 25° NW 03:19:16 10° NNE visible
26 Feb - 08:26:53 10° N 08:29:45 15° NE 08:32:45 10° ENE daylight
26 Feb - 10:08:07 10° NNW 10:13:05 67° NE 10:18:31 10° SE daylight
26 Feb - 11:51:30 10° WNW 11:55:11 20° WSW 11:59:05 10° SSW daylight
27 Feb - 00:45:57 10° SSE 00:49:21 23° ESE 00:52:50 10° ENE night (unlit)
27 Feb - 02:27:28 10° WSW 02:31:33 41° NW 02:35:46 10° NNE visible
27 Feb - 07:44:13 10° NNE 07:45:27 11° NNE 07:46:41 10° NE daylight
27 Feb - 09:24:29 10° NNW 09:29:11 41° NE 09:34:18 10° ESE daylight
27 Feb - 11:07:03 10° NW 11:11:38 34° WSW 11:16:32 10° S daylight
28 Feb - 00:04:06 10° SE 00:05:54 12° ESE 00:07:44 10° E night (unlit)
28 Feb - 01:43:23 10° SW 01:47:40 73° NW 01:52:07 10° NNE night (unlit)
28 Feb - 03:28:43 10° WNW 03:31:00 14° NNW 03:33:21 10° N visible
28 Feb - 08:40:59 10° NNW 08:45:11 27° NE 08:49:42 10° ESE daylight
28 Feb - 10:23:00 10° NW 10:27:58 58° WSW 10:33:22 10° SSE daylight
29 Feb - 00:59:43 10° SSW 01:03:56 60° ESE 01:08:17 10° NE night (unlit)
29 Feb - 02:43:31 10° W 02:46:47 20° NW 02:50:11 10° N visible
29 Feb - 07:57:38 10° N 08:01:04 18° NE 08:04:41 10° E daylight
29 Feb - 09:39:09 10° NNW 09:44:13 85° ENE 09:49:44 10° SSE daylight
29 Feb - 11:23:11 10° WNW 11:26:09 15° WSW 11:29:14 10° SW daylight
01 Mar - 00:16:30 10° S 00:20:19 32° ESE 00:24:13 10° NE night (unlit)
01 Mar - 01:58:50 10° WSW 02:02:42 32° NW 02:06:45 10° NNE visible
01 Mar - 07:14:32 10° N 07:16:49 13° NNE 07:19:10 10° ENE daylight
01 Mar - 08:55:28 10° NNW 09:00:22 52° NE 09:05:42 10° SE daylight
01 Mar - 10:38:23 10° NW 10:42:38 26° WSW 10:47:11 10° SSW daylight
01 Mar - 23:33:59 10° SSE 23:36:48 17° ESE 23:39:40 10° ENE night (unlit)
02 Mar - 01:14:33 10° SW 01:18:46 54° NW 01:23:10 10° NNE night (unlit)
02 Mar - 03:00:46 10° NW 03:02:21 12° NNW 03:03:57 10° N visible
02 Mar - 08:11:54 10° NNW 08:16:24 33° NE 08:21:18 10° ESE daylight
02 Mar - 09:54:10 10° NW 09:59:01 44° WSW 10:04:16 10° S daylight
03 Mar - 00:30:40 10° SSW 00:34:57 83° SE 00:39:26 10° NE night (unlit)
03 Mar - 02:15:12 10° WNW 02:18:04 17° NW 02:21:02 10° N visible
03 Mar - 07:28:27 10° N 07:32:21 22° NE 07:36:30 10° E daylight
03 Mar - 09:10:13 10° NW 09:15:18 75° WSW 09:20:51 10° SSE daylight
03 Mar - 10:55:26 10° W 10:57:05 11° WSW 10:58:46 10° WSW daylight
03 Mar - 23:47:13 10° S 23:51:16 43° ESE 23:55:29 10° NE night (unlit)
04 Mar - 01:30:18 10° W 01:33:55 25° NW 01:37:42 10° NNE night (unlit)
04 Mar - 06:45:11 10° N 06:48:09 16° NE 06:51:16 10° ENE visible
04 Mar - 08:26:27 10° NNW 08:31:30 67° NE 08:37:01 10° SE daylight
04 Mar - 10:09:50 10° WNW 10:13:37 20° WSW 10:17:36 10° SSW daylight
04 Mar - 23:04:18 10° SSE 23:07:42 23° ESE 23:11:13 10° ENE night (unlit)
05 Mar - 00:45:49 10° WSW 00:49:54 41° NW 00:54:10 10° NNE night (unlit)
05 Mar - 06:02:23 10° N 06:03:50 11° NNE 06:05:19 10° NE visible
05 Mar - 07:42:49 10° NNW 07:47:36 42° NE 07:52:47 10° ESE daylight
05 Mar - 09:25:23 10° NW 09:30:02 34° WSW 09:35:02 10° S daylight
05 Mar - 22:22:26 10° SE 22:24:16 12° ESE 22:26:07 10° E night (unlit)
